NOAA 16 DEB, 41660

Orbit data source: Space-Track

NOAA 16 DEB, 41660 is space debris in SSO originally from a launch on Thu, 21 Sep 2000 UTC launched from the Air Force Western Test Range (AFWTR). Debris objects in space refer to the collection of defunct objects orbiting the Earth. Examples of debris include non-operational satellites, rocket bodies, and fragments generated from explosions, collisions, or faulty payload assembly.

Loading next visibility...
Identifier
41660, 2000-055NZ
Orbit
SSO
Country
Flag of USUS
Related business
Manufacturer
Unknown
Mission
Spacecraft
Bus & Motor
Unknown
Mass
Unknown
Launch date (UTC)
2000-09-21 (25 years ago)
Launch vehicle
Unknown
Launch site
Air Force Western Test Range (AFWTR)
Object type
Payload
Rocket body
Debris
Shape & HBR
Unknown shape, 0.1 m
Radar Cross Section
Small (<0.1 m²)

Expand to show TLE details & history
Last TLE update: 22 hours ago

TLE from 22 hours ago
0 NOAA 16 DEB
1 41660U 00055NZ  25290.75301087  .00009374  00000-0  31835-2 0  9991
2 41660  98.7366  32.2026 0019446 147.1596 213.0803 14.36736456492625
Epoch: 2025-10-17T18:04Z
TLE epoch observation values (Epoch: 2025-10-17T18:04:20.139Z)
Latitude
0.00007°
Longitude
94.62482°
Altitude
783.894 km
Speed
7.456 km/s
True Right ascension
02h 08m 48s
True Declination
0° 00' 00"
Sunlit
Object was in full shadow at epoch
Visualization orbit readout
Latitude
Unknown
Longitude
Unknown
Altitude
Unknown
Speed
Unknown
Apparent Right ascension
Unknown
Apparent Declination
Unknown
Sunlit
N/A
Visualization observer readout
Local Sidereal Time
10:56:28
Azimuth
Unknown
Elevation
Unknown
Doppler factor
Unknown
Orbital elements
Apogee altitude
780.332 km
Perigee altitude
752.546 km
Semi-major axis
7,144.576 km
Eccentricity
0.00194
Inclination
98.7366°
RAAN
32.2026°
Arg. of periapsis
147.1596°
True anomaly
212.95892°
Mean anomaly
213.0803°
Eccentric anomaly
213.01959°
Mean motion
3.594 °/min
Orbital period
100.17 mins
BSTAR
0.0031835
Loading maneuver chart data...
Computing Atmospheric mass density...

Documentation

Showing up to 5 results
|